• En España
  • Lista de países
  • Para 7 días
  • Temperatura del agua
  • Mapa Satelital
  • El tiempo en el mapa
  • Informadores
  • user-avatar
    Iniciar sesión

    Tiempo cada hora Soelden

    Hoy, 25 Noviembre, Sábado

    Tiempo Temperatura Precipitaciones Viento Presión Humedad
    00:00 -5°C° 0 mm 2 mps 580 mmHg 94%
    01:00 -5°C° 0 mm 2 mps 580 mmHg 94%
    02:00 -5°C° 0 mm 2 mps 579 mmHg 94%
    03:00 -5°C° 0 mm 2 mps 579 mmHg 94%
    04:00 -5°C° 0 mm 2 mps 578 mmHg 94%
    05:00 -5°C° 0,1 mm 2 mps 578 mmHg 93%
    06:00 -4°C° 0,1 mm 2 mps 577 mmHg 93%
    07:00 -4°C° 0,1 mm 2 mps 577 mmHg 92%
    08:00 -4°C° 0,1 mm 2 mps 577 mmHg 91%
    09:00 -3°C° 0,1 mm 2 mps 577 mmHg 90%
    10:00 -2°C° 0,1 mm 3 mps 577 mmHg 88%
    11:00 -2°C° 0,5 mm 2 mps 577 mmHg 89%
    12:00 -2°C° 0,5 mm 2 mps 577 mmHg 89%
    13:00 -1°C° 0,5 mm 2 mps 577 mmHg 90%
    14:00 0°C° 1,3 mm 1 mps 577 mmHg 91%
    15:00 0°C° 1,3 mm 1 mps 576 mmHg 93%
    16:00 -1°C° 1,3 mm 1 mps 576 mmHg 94%
    17:00 -1°C° 0,9 mm 1 mps 576 mmHg 94%
    18:00 -2°C° 0,9 mm 1 mps 576 mmHg 94%
    19:00 -4°C° 0,9 mm 2 mps 576 mmHg 94%
    20:00 -4°C° 0,5 mm 2 mps 576 mmHg 94%
    21:00 -5°C° 0,5 mm 2 mps 576 mmHg 93%
    22:00 -5°C° 0,5 mm 2 mps 576 mmHg 92%
    23:00 -7°C° 0,3 mm 3 mps 576 mmHg 92%

    Mañana, 26 Noviembre, Domingo

    Tiempo Temperatura Precipitaciones Viento Presión Humedad
    00:00 -8°C° 0,3 mm 3 mps 576 mmHg 91%
    01:00 -8°C° 0,3 mm 3 mps 576 mmHg 90%
    02:00 -9°C° 0,3 mm 3 mps 576 mmHg 88%
    03:00 -10°C° 0,3 mm 4 mps 576 mmHg 87%
    04:00 -11°C° 0,3 mm 4 mps 576 mmHg 86%
    05:00 -11°C° 0,2 mm 4 mps 576 mmHg 84%
    06:00 -12°C° 0,2 mm 4 mps 576 mmHg 83%
    07:00 -12°C° 0,2 mm 4 mps 577 mmHg 82%
    08:00 -12°C° 0,1 mm 4 mps 577 mmHg 79%
    09:00 -12°C° 0,1 mm 4 mps 578 mmHg 76%
    10:00 -12°C° 0,1 mm 4 mps 578 mmHg 73%
    11:00 -12°C° 0 mm 4 mps 578 mmHg 71%
    12:00 -12°C° 0 mm 4 mps 579 mmHg 68%
    13:00 -11°C° 0 mm 4 mps 579 mmHg 65%
    14:00 -12°C° 0 mm 3 mps 579 mmHg 67%
    15:00 -13°C° 0 mm 3 mps 579 mmHg 70%
    16:00 -13°C° 0 mm 3 mps 579 mmHg 72%
    17:00 -15°C° 0 mm 3 mps 579 mmHg 75%
    18:00 -16°C° 0 mm 3 mps 578 mmHg 77%
    19:00 -17°C° 0 mm 3 mps 578 mmHg 80%
    20:00 -17°C° 0 mm 3 mps 578 mmHg 79%
    21:00 -17°C° 0 mm 2 mps 579 mmHg 79%
    22:00 -17°C° 0 mm 2 mps 579 mmHg 78%
    23:00 -17°C° 0 mm 2 mps 579 mmHg 78%

    Pasado mañana, 27 Noviembre, Lunes

    Tiempo Temperatura Precipitaciones Viento Presión Humedad
    00:00 -17°C° 0 mm 2 mps 579 mmHg 77%
    01:00 -17°C° 0 mm 2 mps 579 mmHg 76%
    02:00 -17°C° 0 mm 2 mps 579 mmHg 77%
    03:00 -17°C° 0 mm 2 mps 579 mmHg 77%
    04:00 -17°C° 0 mm 2 mps 579 mmHg 77%
    05:00 -17°C° 0 mm 2 mps 579 mmHg 77%
    06:00 -17°C° 0 mm 2 mps 579 mmHg 78%
    07:00 -17°C° 0 mm 2 mps 579 mmHg 78%
    08:00 -16°C° 0 mm 2 mps 580 mmHg 74%
    09:00 -14°C° 0 mm 2 mps 581 mmHg 71%
    10:00 -12°C° 0 mm 2 mps 582 mmHg 67%
    11:00 -10°C° 0 mm 2 mps 582 mmHg 64%
    12:00 -8°C° 0 mm 1 mps 582 mmHg 60%
    13:00 -7°C° 0 mm 1 mps 583 mmHg 57%
    14:00 -8°C° 0 mm 1 mps 582 mmHg 62%
    15:00 -9°C° 0 mm 1 mps 581 mmHg 66%
    16:00 -10°C° 0 mm 1 mps 580 mmHg 71%
    17:00 -11°C° 0 mm 1 mps 580 mmHg 72%
    18:00 -12°C° 0 mm 1 mps 579 mmHg 73%
    19:00 -13°C° 0 mm 1 mps 579 mmHg 73%
    20:00 -13°C° 0 mm 1 mps 579 mmHg 69%
    21:00 -13°C° 0 mm 1 mps 579 mmHg 64%
    22:00 -13°C° 0 mm 1 mps 579 mmHg 60%
    23:00 -13°C° 0 mm 1 mps 579 mmHg 58%

    28 Noviembre, Martes

    Tiempo Temperatura Precipitaciones Viento Presión Humedad
    00:00 -13°C° 0 mm 1 mps 578 mmHg 56%
    01:00 -12°C° 0 mm 1 mps 578 mmHg 54%
    02:00 -12°C° 0 mm 1 mps 578 mmHg 54%
    03:00 -12°C° 0 mm 1 mps 577 mmHg 53%
    04:00 -12°C° 0 mm 1 mps 577 mmHg 53%
    05:00 -12°C° 0 mm 1 mps 577 mmHg 53%
    06:00 -11°C° 0 mm 1 mps 577 mmHg 54%
    07:00 -11°C° 0 mm 1 mps 577 mmHg 54%
    08:00 -9°C° 0 mm 1 mps 577 mmHg 54%
    09:00 -8°C° 0 mm 1 mps 578 mmHg 55%
    10:00 -6°C° 0 mm 1 mps 578 mmHg 55%
    11:00 -6°C° 0 mm 2 mps 578 mmHg 55%
    12:00 -5°C° 0 mm 2 mps 577 mmHg 54%
    13:00 -5°C° 0 mm 2 mps 577 mmHg 54%
    14:00 -6°C° 0 mm 2 mps 576 mmHg 59%
    15:00 -7°C° 0 mm 2 mps 575 mmHg 63%
    16:00 -8°C° 0 mm 2 mps 575 mmHg 68%
    17:00 -9°C° 0 mm 2 mps 574 mmHg 70%
    18:00 -10°C° 0 mm 2 mps 574 mmHg 71%
    19:00 -12°C° 0 mm 2 mps 573 mmHg 73%
    20:00 -12°C° 0 mm 2 mps 573 mmHg 73%
    21:00 -12°C° 0 mm 2 mps 572 mmHg 74%
    22:00 -12°C° 0 mm 2 mps 572 mmHg 74%
    23:00 -12°C° 0 mm 2 mps 572 mmHg 76%

    29 Noviembre, Miércoles

    Tiempo Temperatura Precipitaciones Viento Presión Humedad
    00:00 -12°C° 0 mm 2 mps 572 mmHg 78%
    01:00 -12°C° 0 mm 2 mps 572 mmHg 80%
    02:00 -12°C° 0 mm 2 mps 571 mmHg 81%
    03:00 -12°C° 0 mm 2 mps 571 mmHg 82%
    04:00 -12°C° 0 mm 2 mps 571 mmHg 83%
    05:00 -12°C° 0,1 mm 2 mps 571 mmHg 84%
    06:00 -12°C° 0,1 mm 2 mps 571 mmHg 86%
    07:00 -10°C° 0,1 mm 2 mps 571 mmHg 87%
    08:00 -9°C° 0,1 mm 2 mps 571 mmHg 85%
    09:00 -8°C° 0,1 mm 2 mps 572 mmHg 83%
    10:00 -7°C° 0,1 mm 2 mps 572 mmHg 81%
    11:00 -7°C° 0,2 mm 2 mps 572 mmHg 80%
    12:00 -6°C° 0,2 mm 2 mps 572 mmHg 79%
    13:00 -5°C° 0,2 mm 2 mps 572 mmHg 78%
    14:00 -6°C° 0,5 mm 2 mps 571 mmHg 83%
    15:00 -6°C° 0,5 mm 1 mps 571 mmHg 87%
    16:00 -6°C° 0,5 mm 1 mps 571 mmHg 91%
    17:00 -6°C° 1,1 mm 1 mps 570 mmHg 92%
    18:00 -7°C° 1,1 mm 1 mps 570 mmHg 93%
    19:00 -7°C° 1,1 mm 1 mps 570 mmHg 94%
    20:00 -7°C° 1,1 mm 1 mps 570 mmHg 93%
    21:00 -7°C° 1,1 mm 1 mps 569 mmHg 93%
    22:00 -7°C° 1,1 mm 1 mps 569 mmHg 93%
    23:00 -7°C° 1,1 mm 1 mps 569 mmHg 93%

    30 Noviembre, Jueves

    Tiempo Temperatura Precipitaciones Viento Presión Humedad
    00:00 -8°C° 1,1 mm 2 mps 568 mmHg 93%
    01:00 -8°C° 1,1 mm 2 mps 568 mmHg 93%
    02:00 -9°C° 0,5 mm 2 mps 568 mmHg 92%
    03:00 -9°C° 0,5 mm 2 mps 567 mmHg 91%
    04:00 -10°C° 0,5 mm 3 mps 567 mmHg 90%
    05:00 -12°C° 0,2 mm 3 mps 567 mmHg 90%
    06:00 -12°C° 0,2 mm 3 mps 567 mmHg 89%
    07:00 -12°C° 0,2 mm 3 mps 567 mmHg 88%
    08:00 -12°C° 0,2 mm 3 mps 568 mmHg 86%
    09:00 -12°C° 0,2 mm 3 mps 568 mmHg 83%
    10:00 -10°C° 0,2 mm 3 mps 569 mmHg 81%
    11:00 -10°C° 0,1 mm 3 mps 569 mmHg 79%
    12:00 -9°C° 0,1 mm 3 mps 569 mmHg 77%
    13:00 -9°C° 0,1 mm 3 mps 570 mmHg 74%
    14:00 -9°C° 0,1 mm 2 mps 569 mmHg 77%
    15:00 -10°C° 0,1 mm 2 mps 569 mmHg 80%
    16:00 -12°C° 0,1 mm 2 mps 569 mmHg 82%
    17:00 -13°C° 0 mm 2 mps 569 mmHg 84%
    18:00 -15°C° 0 mm 2 mps 568 mmHg 85%
    19:00 -16°C° 0 mm 2 mps 568 mmHg 87%
    20:00 -17°C° 0 mm 2 mps 568 mmHg 86%
    21:00 -18°C° 0 mm 2 mps 567 mmHg 86%
    22:00 -18°C° 0 mm 2 mps 567 mmHg 85%
    23:00 -18°C° 0 mm 2 mps 567 mmHg 84%
    Mostrar más